STARLINK-37972, 69708

Orbit data source: Space-Track

STARLINK-37972, 69708 is a payload satellite owned by SpaceX/Seattle (US) in SSO that was launched on Sun, 28 Jun 2026 UTC via an FALCON 9 launch vehicle from the Air Force Western Test Range (AFWTR). Payload-class satellites include a variety of spacecraft equipped with specific instruments for various scientific and technological missions. These include communications satellites like Starlink; space stations such as the ISS; scientific satellites like the Hubble; Earth observation satellites from companies like Planet Labs, Umbra, and HawkEye 360; GPS; miniature CubeSats for education and research; and military/defense satellites.

Loading next visibility...
Identifier
69708, 2026-147E
Orbit
SSO
Country
Flag of USUS
Related business
Manufacturer
SpaceX/Seattle
Mission
Operational Commercial Communications
Bus & Motor
STARLINK V2MO, Unknown motor
Mass
575 kg wet, ~530 kg dry
Launch date (UTC)
2026-06-28 (2 months ago)
Launch vehicle
FALCON 9
Launch site
Air Force Western Test Range (AFWTR)
Object type
Payload
Rocket body
Debris
Shape & HBR
Box + 1 Pan, 17.7 m
Radar Cross Section
41.120 m², Large (>1 m²)

Expand to show TLE details & history
Last TLE update: 19 hours ago

TLE from 19 hours ago
0 STARLINK-37972
1 69708U 26147E   26236.57237143  .00016364  00000-0  50802-3 0  9999
2 69708  97.2869 273.2708 0000996 121.5597 238.5744 15.33449842 10104
Epoch: 2026-08-24T13:44Z
TLE epoch observation values (Epoch: 2026-08-24T13:44:12.891Z)
Latitude
0.00006°
Longitude
94.36493°
Altitude
468.996 km
Speed
7.631 km/s
True Right ascension
18h 13m 04s
True Declination
0° 00' 00"
Sunlit
Object was in full shadow at epoch
Visualization orbit readout
Latitude
Unknown
Longitude
Unknown
Altitude
Unknown
Speed
Unknown
Apparent Right ascension
Unknown
Apparent Declination
Unknown
Sunlit
N/A
Visualization observer readout
Local Sidereal Time
00:13:37
Azimuth
Unknown
Elevation
Unknown
Doppler factor
Unknown
Orbital elements
Apogee altitude
463.153 km
Perigee altitude
461.79 km
Semi-major axis
6,840.609 km
Eccentricity
0.0001
Inclination
97.2869°
RAAN
273.2708°
Arg. of periapsis
121.5597°
True anomaly
238.56466°
Mean anomaly
238.5744°
Eccentric anomaly
238.56953°
Mean motion
3.8362 °/min
Orbital period
93.84 mins
BSTAR
0.00050802
Loading maneuver chart data...
Computing Atmospheric mass density...
Loading historical data...
Loading historical data...
Loading historical data...
Loading historical data...
Loading historical data...
Loading historical data...
Loading historical data...

Documentation

Showing up to 5 results
|